Погода в Соловьях

Россия / Псковская область     57°41′11″N   28°20′23″E
темп.,
°C
ветер,
м/с
пор.,
м/с
влажн.,
%
обл.,
%
осадки,
мм/ч
давл.,
гПа
погр.,
м
21 января, чт
чт2100:00−11ююв51090100 0.0 1011422
03:00−10ююв51193100 0.4 1009489
06:00−9ююв51094100 1.4 1006487
09:00−8ююв4993100 2.3 1005411
12:00−6ююв4893100 0.2 1005358
15:00−4юв4794100 0.6 1004305
18:00−2ююв4896100 1.4 1003321
21:00+1ю41095100 1.7 1002426
22 января, пт
пт2200:000ю41093100 0.0 1002424
03:000ю51192100 0.0 1002440
06:00−1ююз4109497 0.0 1001438
09:000ююз599598 0.0 1002443
12:00+1ю51198100 0.0 1002484
15:00+1ю41098100 0.0 1001525
18:00+1ююв4996100 0.0 1000348
21:00+1ю51096100 0.0 1001360
23 января, сб
сб2300:000ююв5997100 0.0 1000424
03:00+1ю41097100 0.0 999567
06:00+1ю3798100 0.1 999218
09:00+1ююз3799100 0.2 1001238
12:00+1ююз36100100 0.0 1002240
15:00+1ю25100100 0.0 1004165
18:00+1ююв2499100 0.0 1005101
21:00+1юв379696 0.0 1005183
24 января, вс
вс2400:00+1юв389799 0.0 1004299
03:00+2юв41198100 0.1 1002368
06:00+2ююв41197100 0.9 1001481
09:00+2ююв41196100 0.9 1001466
12:00+2ююв41196100 0.0 1001456
15:00+1ююв51198100 0.1 1001553
18:00+2ююв41097100 0.1 1000416
21:00+2вюв4998100 0.4 999311
25 января, пн
пн2500:00+3вюв41197100 0.9 997393
03:00+3юв51395100 1.4 996458
06:00+3вюв41294100 0.3 994499
09:00+2вюв3698100 0.3 993196
12:00+2ю4998100 0.4 996325
15:00+2ююз51195100 1.3 999580
18:00+1ююз4987100 0.0 1002579
21:00+1ю4988100 0.0 1004387